Location: Alexander
(41.3564°N, 81.5960°W)
Time: 18:54:47
(UTC+00:00)

Daily predictions for brighter satellites

Satellite Brightness Start Highest point End
(mag) Time Altitude Azimuth Time Altitude Azimuth Time Altitude Azimuth
STARLINK-1042 4.0 23:34:31 10° WSW 23:38:37 67° NW 23:42:45 10° NE
STARLINK-1056 4.1 23:39:32 10° WSW 23:43:37 62° NW 23:47:45 10° NE
Meteor 1-27 Rocket 4.4 23:41:25 10° NNW 23:46:57 62° W 23:52:33 10° S
Cosmos 1470 Rocket 3.8 23:43:43 10° SSW 23:48:03 75° W 23:52:29 10° N
STARLINK-1054 4.2 23:44:32 10° WSW 23:48:37 57° NNW 23:52:42 10° NE
Cosmos 2369 Rocket 3.8 23:43:49 10° SW 23:48:59 36° WNW 23:54:14 10° N
Cosmos 1464 Rocket 4.3 23:44:03 10° SSE 23:50:04 47° E 23:56:07 10° NNE
CZ-2D R/B 3.4 23:48:09 10° SSE 23:51:55 50° ENE 23:55:42 10° N
Okean 1-7 3.6 23:48:23 10° N 23:52:25 36° ENE 23:56:27 10° SE
STARLINK-1062 4.3 23:49:32 10° WSW 23:53:35 53° NNW 23:57:39 10° NE
Cosmos 1939 Rocket 3.0 23:51:12 10° SSE 23:55:16 59° ENE 23:59:21 10° N
BREEZE-M DEB (TANK) 4.5 23:55:42 10° NW 23:57:38 19° NNE 23:59:47 10° ENE
Hubble Space Telescope 3.4 23:56:40 10° SSW 23:57:38 11° SSW 23:58:36 10° S
